[Iaude] MPEC G60: 2024 FF5 [a=1.53,e=0.36,i=23.3,H=23.3]

mpec at cfa.harvard.edu mpec at cfa.harvard.edu
Fri Apr 5 08:59:18 EDT 2024


M.P.E.C. 2024-G60                                 Issued 2024 April 5, 12:57 UT

     The Minor Planet Electronic Circulars contain information on unusual
         minor planets, routine data on comets and natural satellites,
         and occasional editorial announcements.  They are published
    on behalf of Division F of the International Astronomical Union by the
          Minor Planet Center, Smithsonian Astrophysical Observatory,
                          Cambridge, MA 02138, U.S.A.
			  
             Prepared using the Tamkin Foundation Computer Network

                              MPC at CFA.HARVARD.EDU
            URL https://www.minorplanetcenter.net/    ISSN 1523-6714

                                    2024 FF5                                    


Observations:
     K24F05F* C2024 03 31.24761910 58 16.894+30 16 01.74         21.46wXEG060F52
     K24F05F  C2024 03 31.27103510 58 22.275+30 17 12.14         21.18wXEG060F52
     K24F05F  C2024 03 31.28274910 58 24.948+30 17 47.63         21.48wXEG060F52
     K24F05F  C2024 03 31.41009110 58 53.724+30 24 01.54         22.00GVEG060F52
     K24F05F  C2024 03 31.41079210 58 53.876+30 24 03.62         22.01GVEG060F52
     K24F05F 7C2024 04 03.13163711 09 16.205+32 18 25.62         21.4 GVEG060Z84
     K24F05F 7C2024 04 03.14974811 09 20.081+32 19 03.54         21.6 GVEG060Z84
     K24F05F KC2024 04 05.17555 11 16 23.57 +33 25 29.7          22.7 RVEG060291
     K24F05F KC2024 04 05.18480 11 16 25.30 +33 25 45.8          22.3 RVEG060291
     K24F05F KC2024 04 05.19403 11 16 27.00 +33 26 02.6          23.1 RVEG060291
     K24F05F  C2024 04 05.19416911 16 26.863+33 26 01.87         21.7 GVEG060H01
     K24F05F  C2024 04 05.19792311 16 27.552+33 26 08.45         22.2 GVEG060H01
     K24F05F  C2024 04 05.20849211 16 29.523+33 26 27.27         22.1 GVEG060H01
     K24F05F  C2024 04 05.21496711 16 30.715+33 26 38.50         21.5 GVEG060H01
     K24F05F 3C2024 04 05.31468111 16 51.072+33 29 39.04         22.14GVEG060T14
     K24F05F 3C2024 04 05.31566011 16 51.252+33 29 40.76         22.23GVEG060T14
     K24F05F 3C2024 04 05.31835011 16 51.741+33 29 45.47         22.13GVEG060T14

Observer details:
291 LPL/Spacewatch II.  Observer T. H. Bressi.  1.8-m f/2.7 reflector + CCD.
F52 Pan-STARRS 2, Haleakala.  Observers J. Herman, T. Lowe, P. Minguez, A.
    Schultz, I. Smith.  Measurers K. Chambers, T. de Boer, J. Fairlamb, H.
    Gao, M. Huber, C.-C. Lin, E. Magnier, Y. Ramanjooloo, R. Wainscoat, R.
    Weryk.  1.8-m Ritchey-Chretien + CCD.
H01 Magdalena Ridge Observatory, Socorro.  Observers W. H. Ryan, E. V. Ryan.
    Measurer W. H. Ryan.  2.4-m f/8.9 Ritchey-Chretien + CCD.
T14 Canada-France-Hawaii Telescope, Maunakea.  Observers R. Wainscoat, L.
    Wells, T. Burdullis.  Measurers R. Weryk, R. Wainscoat.  3.6-m f/4.1
    reflector + CCD.
Z84 Calar Alto-Schmidt.  Observers F. Ocana, R. Kresken, M. Micheli, L.
    Conversi.  Measurers F. Ocana, M. Micheli.  0.8-m f/3 Schmidt + CCD.

Orbital elements:
2024 FF5                                                 Earth MOID = 0.1027 AU
Epoch 2024 Mar. 31.0 TT = JDT 2460400.5                 Veres                   
M  33.77851              (2000.0)            P               Q                  
n   0.52280709     Peri.  302.17207     -0.46827510     -0.88301218             
a   1.5260722      Node   175.39199     +0.88339083     -0.46861990             
e   0.3597790      Incl.   23.27697     +0.01841401     +0.02617028             
P   1.89           H   23.39          G   0.15           U   8                  
Residuals in seconds of arc
240331 F52  0.1+  0.0     240403 Z84  0.2+  0.0     240405 H01  0.1+  0.1+
240331 F52  0.0   0.4-    240405 291  0.2-  0.2+    240405 H01  0.0   0.0
240331 F52  0.1-  0.1-    240405 291  0.1-  0.3-    240405 T14  0.0   0.0
240331 F52  0.0   0.0     240405 291  0.3-  0.1+    240405 T14  0.0   0.0
240331 F52  0.1-  0.1+    240405 H01  0.0   0.0     240405 T14  0.0   0.0
240403 Z84  0.2-  0.0     240405 H01  0.1-  0.1-

Ephemeris:
2024 FF5                 a,e,i = 1.53, 0.36, 23                  q = 0.9770
Date    TT    R. A. (2000) Decl.     Delta      r    Elong.  Phase     V
2024 03 06    07 52 34.1 -32 36 03   0.1207  1.0578   120.1    54.3    20.9
...
2024 03 21    10 05 01.8 +15 43 24   0.1456  1.1211   147.0    28.9    20.7
...
2024 03 29    10 48 36.7 +28 11 49   0.2006  1.1592   140.0    33.6    21.6
...
2024 04 04    11 12 22.7 +32 48 50   0.2497  1.1891   134.7    36.7    22.2
2024 04 05    11 15 47.4 +33 20 18   0.2583  1.1942   133.9    37.1    22.3
2024 04 06    11 19 04.1 +33 48 29   0.2670  1.1993   133.2    37.5    22.4
...
2024 04 12    11 36 24.8 +35 41 59   0.3211  1.2304   129.1    39.2    22.9
...
2024 04 20    11 55 01.3 +36 31 40   0.3967  1.2727   124.7    40.5    23.5
...
2024 05 05    12 22 15.1 +35 19 22   0.5466  1.3531   117.8    41.2    24.4

M. P. C. Staff               (C) Copyright 2024 MPC           M.P.E.C. 2024-G60





More information about the Iaude mailing list